Regional Weather Roundup
Issued by NWS

Home | Current Version | Previous Version | Text Only | Print | Product List | Glossary On
Versions: 1 2 3 4 5 6 7 8 9 10 11 12 13 14 15 16 17 18 19 20 21 22 23 24 25 26 27 28 29 30 31 32 33 34 35 36 37 38 39 40 41 42 43 44 45 46 47 48 49 50
000
ASUS45 KSLC 221110
RWRUT

UTAH REGIONAL WEATHER ROUNDUP
NATIONAL WEATHER SERVICE SALT LAKE CITY UT
400 AM MST WED NOV 22 2017

UTZ001>011-023>025-221200-

NORTHERN UTAH

CITY           SKY/WX    TMP DP  RH WIND       PRES   REMARKS
BRIGHAM CITY   CLOUDY    46  40  80 CALM      30.40S
HILL AFB       CLOUDY    49  38  65 E9        30.39F
LOGAN          CLOUDY    45  42  89 CALM      30.38F
OGDEN          CLOUDY    49  39  68 S7        30.38F
SALT LAKE CITY PTCLDY    45  39  79 SE7       30.39S
TOOELE VALLEY  PTCLDY    37  36  93 S3        30.39F
WENDOVER       PTCLDY    38  31  76 SW3       30.39S
HEBER CITY       N/A     32  30  93 CALM      30.45S
WEST JORDAN    CLEAR     47  39  75 S9        30.40F

$$

UTZ011>015-024>027-221200-

CENTRAL/NORTHEAST UTAH

CITY           SKY/WX    TMP DP  RH WIND       PRES   REMARKS
PROVO AIRPORT  PTCLDY    41  35  79 CALM      30.43S
MOAB/CANYONLAN MOCLDY    34  11  38 CALM      30.41S
DELTA          MOCLDY    34  28  80 NE5       30.42R WCI  30
PRICE          PTCLDY    35  25  66 N7        30.43R WCI  29
RICHFIELD      CLEAR     30  30 100 CALM      30.47
ROOSEVELT      CLOUDY    36  30  80 CALM      30.42F
VERNAL         CLOUDY    41  31  67 NW3       30.40F

$$

UTZ013>016-019>022-027-221200-

SOUTHERN UTAH

CITY           SKY/WX    TMP DP  RH WIND       PRES   REMARKS
BRYCE CANYON   PTCLDY    26  24  92 N6        30.49S WCI  19
CEDAR CITY     CLEAR     33  30  88 CALM      30.41S
MILFORD        PTCLDY    35  29  78 SW7       30.41S WCI  29
ST GEORGE      SUNNY     43  15  32 SW6       30.33R
HANKSVILLE     MOCLDY    30  10  43 CALM      30.44S
BLANDING         N/A     37  28  70 N5        30.48S WCI  33

$$

REGIONAL REPORTS     COLORADO/ARIZONA

CITY           SKY/WX    TMP DP  RH WIND       PRES   REMARKS
CRAIG, CO      CLOUDY    32  29  88 CALM      30.42F
GRAND JUNCTION CLOUDY    35  26  69 E6        30.42F WCI  30
RIFLE, CO      CLOUDY    30  28  92 CALM      30.46F
MONTROSE, CO   CLOUDY    32  28  85 S7        30.48R WCI  26
CORTEZ, CO     CLOUDY    27  22  81 CALM      30.41R
COLORADO CITY    N/A     37  27  65 CALM      30.40S
PAGE, AZ       PTCLDY    43  22  43 CALM      30.37S
GRAND CANYON   PTCLDY    28  19  69 E3        30.43F
KINGMAN, AZ    CLEAR     51  22  31 E6        30.27S
FLAGSTAFF, AZ  CLEAR     38  26  62 MISG      30.43S

$$

REGIONAL REPORTS    NEVADA/IDAHO/WYOMING

CITY           SKY/WX    TMP DP  RH WIND       PRES   REMARKS
LAS VEGAS, NV  MOCLDY    55  31  39 S8        30.24S
ELY, NY        CLEAR     31  27  85 S14       30.46S WCI  21
ELKO, NV       CLEAR     36  33  89 NE3       30.40S
POCATELLO, ID  CLOUDY    40  40 100 NE3       30.35F
BURLEY, ID     MOCLDY    43  41  93 CALM      30.32F
FORT BRIDGER,  CLOUDY    44  37  77 SW8       30.46S
EVANSTON, WY   CLOUDY    41  36  82 SW9       30.45S
ROCK SPRINGS,  CLOUDY    42  34  73 SW17      30.39S
KEMMERER, WY   CLOUDY    37  36  93 SW7       30.43S WCI  32

$$



USA.gov is the U.S. government's official web portal to all federal, state and local government web resources and services.